Time,TemperatureF,DewpointF,PressureIn,WindDirection,WindDirectionDegrees,WindSpeedMPH,WindSpeedGustMPH,Humidity,HourlyPrecipIn,Conditions,Clouds,dailyrainin,SolarRadiationWatts/m^2,SoftwareType,DateUTC
2013-06-23 00:01:00,69.0,65.0,-100.00,NNW,347,0.0,2.0,88,0.00,,,0.00,0.000000,,2013-06-23 04:01:00,
2013-06-23 00:21:00,67.0,65.0,-100.00,NNW,327,0.0,2.0,93,0.00,,,0.00,0.000000,,2013-06-23 04:21:00,
2013-06-23 00:31:00,67.0,65.0,-100.00,NNW,327,0.0,2.0,93,0.00,,,0.00,0.000000,,2013-06-23 04:31:00,
2013-06-23 00:42:00,67.0,65.0,-100.00,NNW,327,0.0,2.0,93,0.00,,,0.00,0.000000,,2013-06-23 04:42:00,
2013-06-23 00:52:00,67.0,65.0,-100.00,NNW,327,0.0,2.0,93,0.00,,,0.00,0.000000,,2013-06-23 04:52:00,
2013-06-23 01:01:00,67.0,65.0,-100.00,NNW,327,0.0,2.0,93,0.00,,,0.00,0.000000,,2013-06-23 05:01:00,
2013-06-23 01:02:00,67.0,64.0,-100.00,NNE,14,0.0,0.0,91,0.00,,,0.00,0.000000,,2013-06-23 05:02:00,
2013-06-23 01:22:00,67.0,64.0,-100.00,NNE,14,0.0,0.0,91,0.00,,,0.00,0.000000,,2013-06-23 05:22:00,
2013-06-23 01:32:00,67.0,64.0,-100.00,NNE,14,0.0,0.0,91,0.00,,,0.00,0.000000,,2013-06-23 05:32:00,
2013-06-23 01:42:00,67.0,64.0,-100.00,NNE,14,0.0,0.0,91,0.00,,,0.00,0.000000,,2013-06-23 05:42:00,
2013-06-23 01:52:00,67.0,64.0,-100.00,NNE,14,0.0,0.0,91,0.00,,,0.00,0.000000,,2013-06-23 05:52:00,
2013-06-23 02:02:00,66.0,64.0,-100.00,NNW,331,1.0,3.0,94,0.00,,,0.00,0.000000,,2013-06-23 06:02:00,
2013-06-23 02:22:00,66.0,64.0,-100.00,NNW,331,1.0,3.0,94,0.00,,,0.00,0.000000,,2013-06-23 06:22:00,
2013-06-23 02:33:00,66.0,64.0,-100.00,NNW,331,1.0,3.0,94,0.00,,,0.00,0.000000,,2013-06-23 06:33:00,
2013-06-23 02:43:00,66.0,64.0,-100.00,NNW,331,1.0,3.0,94,0.00,,,0.00,0.000000,,2013-06-23 06:43:00,
2013-06-23 02:52:00,66.0,64.0,-100.00,NNW,331,1.0,3.0,94,0.00,,,0.00,0.000000,,2013-06-23 06:52:00,
2013-06-23 03:02:00,65.0,64.0,-100.00,NNE,20,1.0,2.0,95,0.00,,,0.00,0.000000,,2013-06-23 07:02:00,
2013-06-23 03:22:00,65.0,64.0,-100.00,NNE,20,1.0,2.0,95,0.00,,,0.00,0.000000,,2013-06-23 07:22:00,
2013-06-23 03:34:00,65.0,64.0,-100.00,NNE,20,1.0,2.0,95,0.00,,,0.00,0.000000,,2013-06-23 07:34:00,
2013-06-23 03:43:00,65.0,64.0,-100.00,NNE,20,1.0,2.0,95,0.00,,,0.00,0.000000,,2013-06-23 07:43:00,
2013-06-23 03:53:00,65.0,64.0,-100.00,NNE,20,1.0,2.0,95,0.00,,,0.00,0.000000,,2013-06-23 07:53:00,
2013-06-23 04:02:00,64.0,63.0,-100.00,NNE,31,0.0,2.0,95,0.00,,,0.00,0.000000,,2013-06-23 08:02:00,
2013-06-23 04:22:00,64.0,63.0,-100.00,NNE,31,0.0,2.0,95,0.00,,,0.00,0.000000,,2013-06-23 08:22:00,
2013-06-23 04:34:00,64.0,63.0,-100.00,NNE,31,0.0,2.0,95,0.00,,,0.00,0.000000,,2013-06-23 08:34:00,
2013-06-23 04:43:00,64.0,63.0,-100.00,NNE,31,0.0,2.0,95,0.00,,,0.00,0.000000,,2013-06-23 08:43:00,
2013-06-23 04:53:00,64.0,63.0,-100.00,NNE,31,0.0,2.0,95,0.00,,,0.00,0.000000,,2013-06-23 08:53:00,
2013-06-23 05:02:00,63.0,62.0,-100.00,North,358,1.0,2.0,97,0.00,,,0.00,0.000000,,2013-06-23 09:02:00,
2013-06-23 05:22:00,63.0,62.0,-100.00,North,358,1.0,2.0,97,0.00,,,0.00,0.000000,,2013-06-23 09:22:00,
2013-06-23 05:34:00,63.0,62.0,-100.00,North,358,1.0,2.0,97,0.00,,,0.00,0.000000,,2013-06-23 09:34:00,
2013-06-23 05:43:00,63.0,62.0,-100.00,North,358,1.0,2.0,97,0.00,,,0.00,0.000000,,2013-06-23 09:43:00,
2013-06-23 05:54:00,63.0,62.0,-100.00,North,358,1.0,2.0,97,0.00,,,0.00,0.000000,,2013-06-23 09:54:00,
2013-06-23 06:02:00,63.0,62.0,-100.00,North,355,2.0,3.0,96,0.00,,,0.00,0.000000,,2013-06-23 10:02:00,
2013-06-23 06:22:00,63.0,62.0,-100.00,North,355,2.0,3.0,96,0.00,,,0.00,0.000000,,2013-06-23 10:22:00,
2013-06-23 06:34:00,63.0,62.0,-100.00,North,355,2.0,3.0,96,0.00,,,0.00,0.000000,,2013-06-23 10:34:00,
2013-06-23 06:43:00,63.0,62.0,-100.00,North,355,2.0,3.0,96,0.00,,,0.00,0.000000,,2013-06-23 10:43:00,
2013-06-23 06:53:00,63.0,62.0,-100.00,North,355,2.0,3.0,96,0.00,,,0.00,0.000000,,2013-06-23 10:53:00,
2013-06-23 07:22:00,64.0,62.0,-100.00,NNE,15,2.0,4.0,93,0.00,,,0.00,4.000000,,2013-06-23 11:22:00,
2013-06-23 07:33:00,64.0,62.0,-100.00,NNE,15,2.0,4.0,93,0.00,,,0.00,4.000000,,2013-06-23 11:33:00,
2013-06-23 07:43:00,64.0,62.0,-100.00,NNE,15,2.0,4.0,93,0.00,,,0.00,4.000000,,2013-06-23 11:43:00,
2013-06-23 07:53:00,64.0,62.0,-100.00,NNE,15,2.0,4.0,93,0.00,,,0.00,4.000000,,2013-06-23 11:53:00,
2013-06-23 08:01:00,64.0,62.0,-100.00,NNE,15,2.0,4.0,93,0.00,,,0.00,4.000000,,2013-06-23 12:01:00,
2013-06-23 08:02:00,65.0,62.0,-100.00,NNE,26,2.0,3.0,91,0.00,,,0.00,44.000000,,2013-06-23 12:02:00,
2013-06-23 08:22:00,65.0,62.0,-100.00,NNE,26,2.0,3.0,91,0.00,,,0.00,44.000000,,2013-06-23 12:22:00,
2013-06-23 08:34:00,65.0,62.0,-100.00,NNE,26,2.0,3.0,91,0.00,,,0.00,44.000000,,2013-06-23 12:34:00,
2013-06-23 08:43:00,65.0,62.0,-100.00,NNE,26,2.0,3.0,91,0.00,,,0.00,44.000000,,2013-06-23 12:43:00,
2013-06-23 08:53:00,65.0,62.0,-100.00,NNE,26,2.0,3.0,91,0.00,,,0.00,44.000000,,2013-06-23 12:53:00,
2013-06-23 09:02:00,71.0,65.0,-100.00,North,355,1.0,4.0,81,0.00,,,0.00,188.000000,,2013-06-23 13:02:00,
2013-06-23 09:24:00,71.0,65.0,-100.00,North,355,1.0,4.0,81,0.00,,,0.00,188.000000,,2013-06-23 13:24:00,
2013-06-23 09:34:00,71.0,65.0,-100.00,North,355,1.0,4.0,81,0.00,,,0.00,188.000000,,2013-06-23 13:34:00,
2013-06-23 09:43:00,71.0,65.0,-100.00,North,355,1.0,4.0,81,0.00,,,0.00,188.000000,,2013-06-23 13:43:00,
2013-06-23 09:54:00,71.0,65.0,-100.00,North,355,1.0,4.0,81,0.00,,,0.00,188.000000,,2013-06-23 13:54:00,
2013-06-23 10:02:00,79.0,68.0,-100.00,NNW,344,2.0,5.0,69,0.00,,,0.00,448.000000,,2013-06-23 14:02:00,
2013-06-23 10:34:00,79.0,68.0,-100.00,NNW,344,2.0,5.0,69,0.00,,,0.00,448.000000,,2013-06-23 14:34:00,
2013-06-23 10:44:00,79.0,68.0,-100.00,NNW,344,2.0,5.0,69,0.00,,,0.00,448.000000,,2013-06-23 14:44:00,
2013-06-23 10:52:00,79.0,68.0,-100.00,NNW,344,2.0,5.0,69,0.00,,,0.00,448.000000,,2013-06-23 14:52:00,
2013-06-23 11:02:00,80.0,68.0,-100.00,NE,42,2.0,4.0,68,0.00,,,0.00,538.000000,,2013-06-23 15:02:00,
2013-06-23 11:35:00,80.0,68.0,-100.00,NE,42,2.0,4.0,68,0.00,,,0.00,538.000000,,2013-06-23 15:35:00,
2013-06-23 11:43:00,80.0,68.0,-100.00,NE,42,2.0,4.0,68,0.00,,,0.00,538.000000,,2013-06-23 15:43:00,
2013-06-23 11:53:00,80.0,68.0,-100.00,NE,42,2.0,4.0,68,0.00,,,0.00,538.000000,,2013-06-23 15:53:00,
2013-06-23 12:02:00,81.0,68.0,-100.00,SSE,159,2.0,4.0,65,0.00,,,0.00,399.000000,,2013-06-23 16:02:00,
2013-06-23 12:22:00,81.0,68.0,-100.00,SSE,159,2.0,4.0,65,0.00,,,0.00,399.000000,,2013-06-23 16:22:00,
2013-06-23 12:36:00,81.0,68.0,-100.00,SSE,159,2.0,4.0,65,0.00,,,0.00,399.000000,,2013-06-23 16:36:00,
2013-06-23 12:43:00,81.0,68.0,-100.00,SSE,159,2.0,4.0,65,0.00,,,0.00,399.000000,,2013-06-23 16:43:00,
2013-06-23 12:53:00,81.0,68.0,-100.00,SSE,159,2.0,4.0,65,0.00,,,0.00,399.000000,,2013-06-23 16:53:00,
2013-06-23 13:22:00,83.0,68.0,-100.00,SSE,164,2.0,4.0,61,0.00,,,0.00,570.000000,,2013-06-23 17:22:00,
2013-06-23 13:34:00,83.0,68.0,-100.00,SSE,164,2.0,4.0,61,0.00,,,0.00,570.000000,,2013-06-23 17:34:00,
2013-06-23 13:43:00,83.0,68.0,-100.00,SSE,164,2.0,4.0,61,0.00,,,0.00,570.000000,,2013-06-23 17:43:00,
2013-06-23 13:53:00,83.0,68.0,-100.00,SSE,164,2.0,4.0,61,0.00,,,0.00,570.000000,,2013-06-23 17:53:00,
2013-06-23 14:01:00,83.0,68.0,-100.00,SSE,164,2.0,4.0,61,0.00,,,0.00,570.000000,,2013-06-23 18:01:00,
2013-06-23 14:34:00,85.0,70.0,-100.00,ESE,102,3.0,6.0,61,0.00,,,0.00,712.000000,,2013-06-23 18:34:00,
2013-06-23 14:43:00,85.0,70.0,-100.00,ESE,102,3.0,6.0,61,0.00,,,0.00,712.000000,,2013-06-23 18:43:00,
2013-06-23 14:53:00,85.0,70.0,-100.00,ESE,102,3.0,6.0,61,0.00,,,0.00,712.000000,,2013-06-23 18:53:00,
2013-06-23 15:01:00,85.0,70.0,-100.00,ESE,102,3.0,6.0,61,0.00,,,0.00,712.000000,,2013-06-23 19:01:00,
2013-06-23 15:02:00,86.0,69.0,-100.00,SSE,148,2.0,5.0,57,0.00,,,0.00,820.000000,,2013-06-23 19:02:00,
2013-06-23 15:22:00,86.0,69.0,-100.00,SSE,148,2.0,5.0,57,0.00,,,0.00,820.000000,,2013-06-23 19:22:00,
2013-06-23 15:32:00,86.0,69.0,-100.00,SSE,148,2.0,5.0,57,0.00,,,0.00,820.000000,,2013-06-23 19:32:00,
2013-06-23 15:43:00,86.0,69.0,-100.00,SSE,148,2.0,5.0,57,0.00,,,0.00,820.000000,,2013-06-23 19:43:00,
2013-06-23 15:53:00,86.0,69.0,-100.00,SSE,148,2.0,5.0,57,0.00,,,0.00,820.000000,,2013-06-23 19:53:00,
2013-06-23 16:24:00,86.0,70.0,-100.00,SSE,155,2.0,5.0,60,0.00,,,0.00,783.000000,,2013-06-23 20:24:00,
2013-06-23 16:34:00,86.0,70.0,-100.00,SSE,155,2.0,5.0,60,0.00,,,0.00,783.000000,,2013-06-23 20:34:00,
2013-06-23 16:42:00,86.0,70.0,-100.00,SSE,155,2.0,5.0,60,0.00,,,0.00,783.000000,,2013-06-23 20:42:00,
2013-06-23 16:53:00,86.0,70.0,-100.00,SSE,155,2.0,5.0,60,0.00,,,0.00,783.000000,,2013-06-23 20:53:00,
2013-06-23 17:01:00,86.0,70.0,-100.00,SSE,155,2.0,5.0,60,0.00,,,0.00,783.000000,,2013-06-23 21:01:00,
2013-06-23 17:22:00,84.0,69.0,-100.00,SSW,196,2.0,4.0,60,0.00,,,0.00,525.000000,,2013-06-23 21:22:00,
2013-06-23 17:34:00,84.0,69.0,-100.00,SSW,196,2.0,4.0,60,0.00,,,0.00,525.000000,,2013-06-23 21:34:00,
2013-06-23 17:44:00,84.0,69.0,-100.00,SSW,196,2.0,4.0,60,0.00,,,0.00,525.000000,,2013-06-23 21:44:00,
2013-06-23 17:52:00,84.0,69.0,-100.00,SSW,196,2.0,4.0,60,0.00,,,0.00,525.000000,,2013-06-23 21:52:00,
2013-06-23 18:01:00,84.0,69.0,-100.00,SSW,196,2.0,4.0,60,0.00,,,0.00,525.000000,,2013-06-23 22:01:00,
2013-06-23 18:22:00,83.0,71.0,-100.00,South,182,1.0,5.0,68,0.00,,,0.00,391.000000,,2013-06-23 22:22:00,
2013-06-23 18:32:00,83.0,71.0,-100.00,South,182,1.0,5.0,68,0.00,,,0.00,391.000000,,2013-06-23 22:32:00,
2013-06-23 18:43:00,83.0,71.0,-100.00,South,182,1.0,5.0,68,0.00,,,0.00,391.000000,,2013-06-23 22:43:00,
2013-06-23 18:53:00,83.0,71.0,-100.00,South,182,1.0,5.0,68,0.00,,,0.00,391.000000,,2013-06-23 22:53:00,
2013-06-23 19:01:00,83.0,71.0,-100.00,South,182,1.0,5.0,68,0.00,,,0.00,391.000000,,2013-06-23 23:01:00,
2013-06-23 19:22:00,83.0,69.0,-100.00,South,173,2.0,2.0,62,0.00,,,0.00,254.000000,,2013-06-23 23:22:00,
2013-06-23 19:33:00,83.0,69.0,-100.00,South,173,2.0,2.0,62,0.00,,,0.00,254.000000,,2013-06-23 23:33:00,
2013-06-23 19:44:00,83.0,69.0,-100.00,South,173,2.0,2.0,62,0.00,,,0.00,254.000000,,2013-06-23 23:44:00,
2013-06-23 19:52:00,83.0,69.0,-100.00,South,173,2.0,2.0,62,0.00,,,0.00,254.000000,,2013-06-23 23:52:00,
2013-06-23 20:01:00,83.0,69.0,-100.00,South,173,2.0,2.0,62,0.00,,,0.00,254.000000,,2013-06-24 00:01:00,
2013-06-23 20:02:00,78.0,69.0,-100.00,SSE,168,2.0,3.0,75,0.00,,,0.00,105.000000,,2013-06-24 00:02:00,
2013-06-23 20:22:00,78.0,69.0,-100.00,SSE,168,2.0,3.0,75,0.00,,,0.00,105.000000,,2013-06-24 00:22:00,
2013-06-23 20:33:00,78.0,69.0,-100.00,SSE,168,2.0,3.0,75,0.00,,,0.00,105.000000,,2013-06-24 00:33:00,
2013-06-23 20:43:00,78.0,69.0,-100.00,SSE,168,2.0,3.0,75,0.00,,,0.00,105.000000,,2013-06-24 00:43:00,
2013-06-23 20:52:00,78.0,69.0,-100.00,SSE,168,2.0,3.0,75,0.00,,,0.00,105.000000,,2013-06-24 00:52:00,
2013-06-23 21:02:00,75.0,68.0,-100.00,SE,144,0.0,2.0,78,0.00,,,0.00,12.000000,,2013-06-24 01:02:00,
2013-06-23 21:22:00,75.0,68.0,-100.00,SE,144,0.0,2.0,78,0.00,,,0.00,12.000000,,2013-06-24 01:22:00,
2013-06-23 21:32:00,75.0,68.0,-100.00,SE,144,0.0,2.0,78,0.00,,,0.00,12.000000,,2013-06-24 01:32:00,
2013-06-23 21:42:00,75.0,68.0,-100.00,SE,144,0.0,2.0,78,0.00,,,0.00,12.000000,,2013-06-24 01:42:00,
2013-06-23 21:53:00,75.0,68.0,-100.00,SE,144,0.0,2.0,78,0.00,,,0.00,12.000000,,2013-06-24 01:53:00,
2013-06-23 22:22:00,74.0,69.0,-100.00,SE,143,0.0,1.0,85,0.00,,,0.00,0.000000,,2013-06-24 02:22:00,
2013-06-23 22:33:00,74.0,69.0,-100.00,SE,143,0.0,1.0,85,0.00,,,0.00,0.000000,,2013-06-24 02:33:00,
2013-06-23 22:42:00,74.0,69.0,-100.00,SE,143,0.0,1.0,85,0.00,,,0.00,0.000000,,2013-06-24 02:42:00,
2013-06-23 22:53:00,74.0,69.0,-100.00,SE,143,0.0,1.0,85,0.00,,,0.00,0.000000,,2013-06-24 02:53:00,
2013-06-23 23:01:00,74.0,69.0,-100.00,SE,143,0.0,1.0,85,0.00,,,0.00,0.000000,,2013-06-24 03:01:00,
2013-06-23 23:02:00,72.0,70.0,-100.00,SSE,147,1.0,2.0,92,0.00,,,0.00,0.000000,,2013-06-24 03:02:00,
2013-06-23 23:22:00,72.0,70.0,-100.00,SSE,147,1.0,2.0,92,0.00,,,0.00,0.000000,,2013-06-24 03:22:00,
2013-06-23 23:33:00,72.0,70.0,-100.00,SSE,147,1.0,2.0,92,0.00,,,0.00,0.000000,,2013-06-24 03:33:00,
2013-06-23 23:43:00,72.0,70.0,-100.00,SSE,147,1.0,2.0,92,0.00,,,0.00,0.000000,,2013-06-24 03:43:00,
2013-06-23 23:53:00,72.0,70.0,-100.00,SSE,147,1.0,2.0,92,0.00,,,0.00,0.000000,,2013-06-24 03:53:00,